QPF
0.00 0.00 0.00 0.00 0.01 0.09 0.23 0.11 0.02 0.01 0.01 0.00 0.00 0.00 0.00 0.01 0.07 0.05 0.00 0.00 0.00 0.00 0.00 0.00 0.00 0.00 0.00 0.01 0.02 0.03 0.05 0.06 0.06 0.06 0.06 0.04 0.02 0.01 0.01 0.00 0.00 0.00 0.00 0.00 0.00 0.00 0.00 0.00 0.00
0.00 0.00 0.00 0.00 0.02 0.17 0.35 0.13 0.02 0.00 0.00 0.00 0.00 0.00 0.00 0.00 0.00 0.00 0.00 0.00 0.00 0.00 0.00 0.00 0.00 0.00 0.00 0.00 0.01 0.02 0.04 0.05 0.05 0.05 0.05 0.03 0.02 0.01 0.01 0.00 0.00 0.00 0.00 0.00 0.00 0.00 0.00 0.00 0.00
0.00 0.00 0.00 0.00 0.01 0.05 0.08 0.04 0.02 0.01 0.00 0.00 0.00 0.00 0.00 0.00 0.00 0.00 0.00 0.00 0.00 0.00 0.00 0.00 0.00 0.00 0.00 0.00 0.00 0.01 0.02 0.02 0.03 0.03 0.02 0.02 0.01 0.01 0.00 0.00 0.00 0.00 0.00 0.00 0.01 0.00 0.00 0.00 0.00
0.00 0.00 0.00 0.00 0.00 0.01 0.01 0.01 0.01 0.00 0.00 0.00 0.00 0.00 0.00 0.00 0.00 0.00 0.00 0.00 0.00 0.00 0.00 0.00 0.00 0.00 0.00 0.00 0.00 0.00 0.01 0.01 0.01 0.01 0.01 0.01 0.00 0.00 0.00 0.00 0.00 0.01 0.01 0.01 0.01 0.01 0.01 0.00 0.00
0.00 0.00 0.00 0.00 0.00 0.01 0.01 0.01 0.00 0.01 0.03 0.03 0.01 0.00 0.00 0.00 0.00 0.00 0.00 0.00 0.00 0.00 0.00 0.00 0.00 0.00 0.00 0.00 0.01 0.01 0.01 0.01 0.01 0.01 0.01 0.00 0.00 0.00 0.00 0.00 0.00 0.01 0.02 0.01 0.01 0.01 0.01 0.01 0.00
0.00 0.00 0.00 0.00 0.00 0.01 0.01 0.01 0.00 0.01 0.02 0.03 0.05 0.02 0.00 0.00 0.00 0.00 0.00 0.00 0.00 0.00 0.00 0.00 0.00 0.00 0.01 0.01 0.01 0.01 0.01 0.01 0.01 0.01 0.00 0.00 0.00 0.00 0.00 0.01 0.01 0.01 0.02 0.02 0.01 0.01 0.01 0.01 0.01
0.00 0.00 0.00 0.00 0.00 0.01 0.02 0.03 0.03 0.05 0.06 0.06 0.09 0.04 0.00 0.00 0.00 0.00 0.00 0.00 0.00 0.00 0.00 0.00 0.00 0.01 0.01 0.01 0.01 0.01 0.01 0.01 0.02 0.01 0.01 0.00 0.00 0.00 0.00 0.01 0.01 0.01 0.01 0.02 0.01 0.01 0.01 0.01 0.01
0.00 0.00 0.00 0.00 0.00 0.00 0.03 0.05 0.03 0.07 0.14 0.13 0.07 0.03 0.01 0.00 0.00 0.00 0.00 0.00 0.00 0.01 0.01 0.01 0.03 0.06 0.04 0.04 0.02 0.02 0.01 0.01 0.01 0.01 0.01 0.01 0.00 0.01 0.02 0.02 0.02 0.01 0.01 0.02 0.02 0.02 0.02 0.02 0.01
0.00 0.00 0.00 0.00 0.00 0.02 0.06 0.12 0.10 0.06 0.09 0.07 0.05 0.04 0.01 0.00 0.00 0.00 0.00 0.00 0.00 0.01 0.01 0.02 0.04 0.04 0.05 0.07 0.05 0.03 0.03 0.03 0.02 0.05 0.04 0.03 0.05 0.09 0.15 0.11 0.07 0.04 0.03 0.03 0.03 0.03 0.03 0.03 0.01
0.00 0.00 0.00 0.00 0.00 0.02 0.06 0.11 0.17 0.09 0.06 0.11 0.11 0.05 0.00 0.00 0.00 0.00 0.00 0.00 0.00 0.01 0.01 0.02 0.03 0.03 0.03 0.03 0.06 0.08 0.09 0.09 0.07 0.12 0.12 0.11 0.12 0.12 0.12 0.15 0.10 0.08 0.06 0.06 0.07 0.05 0.04 0.04 0.03
0.00 0.00 0.00 0.00 0.00 0.00 0.02 0.04 0.04 0.08 0.18 0.31 0.21 0.04 0.01 0.00 0.00 0.00 0.01 0.02 0.01 0.01 0.01 0.02 0.02 0.02 0.04 0.06 0.05 0.06 0.08 0.07 0.08 0.10 0.10 0.12 0.11 0.10 0.10 0.17 0.17 0.15 0.13 0.15 0.17 0.13 0.10 0.14 0.17
0.00 0.00 0.00 0.00 0.00 0.00 0.01 0.04 0.08 0.16 0.38 0.43 0.30 0.06 0.02 0.02 0.02 0.01 0.04 0.09 0.05 0.02 0.01 0.02 0.02 0.02 0.04 0.04 0.04 0.06 0.06 0.05 0.05 0.08 0.07 0.11 0.16 0.18 0.18 0.22 0.21 0.24 0.25 0.24 0.26 0.30 0.26 0.22 0.19
0.00 0.00 0.00 0.00 0.00 0.01 0.03 0.07 0.12 0.16 0.28 0.23 0.13 0.03 0.03 0.02 0.02 0.02 0.03 0.05 0.03 0.02 0.02 0.03 0.03 0.04 0.05 0.04 0.03 0.05 0.06 0.06 0.06 0.07 0.06 0.06 0.10 0.13 0.15 0.16 0.15 0.17 0.22 0.22 0.22 0.20 0.22 0.19 0.18
0.00 0.00 0.00 0.01 0.00 0.00 0.01 0.01 0.07 0.09 0.08 0.05 0.03 0.03 0.03 0.02 0.03 0.05 0.05 0.04 0.05 0.04 0.04 0.03 0.04 0.05 0.04 0.04 0.03 0.03 0.03 0.04 0.02 0.02 0.02 0.02 0.04 0.05 0.07 0.09 0.11 0.11 0.14 0.14 0.14 0.14 0.15 0.16 0.16
0.00 0.03 0.08 0.05 0.01 0.01 0.01 0.04 0.14 0.14 0.06 0.03 0.02 0.03 0.05 0.06 0.08 0.11 0.09 0.06 0.06 0.05 0.05 0.04 0.05 0.05 0.04 0.03 0.02 0.01 0.01 0.01 0.01 0.01 0.01 0.00 0.01 0.01 0.02 0.04 0.06 0.07 0.08 0.08 0.07 0.07 0.07 0.07 0.08
0.00 0.06 0.19 0.12 0.03 0.02 0.04 0.29 0.41 0.20 0.08 0.04 0.03 0.06 0.11 0.12 0.12 0.13 0.17 0.08 0.05 0.04 0.04 0.04 0.03 0.03 0.02 0.02 0.01 0.01 0.00 0.00 0.00 0.00 0.00 0.00 0.01 0.01 0.01 0.02 0.03 0.04 0.04 0.04 0.04 0.05 0.05 0.05 0.06
0.02 0.05 0.13 0.07 0.04 0.01 0.04 0.35 0.41 0.13 0.08 0.06 0.05 0.07 0.13 0.15 0.14 0.12 0.13 0.08 0.05 0.02 0.03 0.03 0.02 0.01 0.01 0.01 0.00 0.00 0.00 0.00 0.00 0.00 0.00 0.00 0.00 0.00 0.00 0.01 0.02 0.01 0.01 0.01 0.01 0.03 0.04 0.04 0.04
0.01 0.01 0.03 0.05 0.03 0.01 0.02 0.10 0.20 0.13 0.14 0.12 0.09 0.08 0.11 0.13 0.15 0.14 0.11 0.09 0.04 0.02 0.02 0.02 0.01 0.01 0.01 0.01 0.00 0.00 0.00 0.00 0.00 0.00 0.00 0.00 0.00 0.00 0.00 0.00 0.01 0.00 0.00 0.01 0.01 0.02 0.02 0.02 0.02
0.00 0.00 0.02 0.04 0.02 0.01 0.02 0.05 0.12 0.09 0.12 0.18 0.19 0.14 0.14 0.18 0.15 0.12 0.08 0.09 0.03 0.02 0.01 0.00 0.00 0.01 0.01 0.01 0.01 0.01 0.00 0.00 0.00 0.00 0.00 0.00 0.00 0.00 0.00 0.00 0.00 0.01 0.01 0.01 0.01 0.01 0.01 0.01 0.01
0.00 0.01 0.02 0.02 0.01 0.00 0.01 0.03 0.04 0.05 0.07 0.12 0.16 0.10 0.09 0.15 0.18 0.13 0.05 0.03 0.01 0.01 0.00 0.00 0.00 0.01 0.01 0.01 0.01 0.01 0.01 0.00 0.00 0.00 0.00 0.00 0.00 0.00 0.00 0.00 0.00 0.00 0.01 0.01 0.01 0.02 0.01 0.01 0.00
0.01 0.01 0.01 0.01 0.00 0.02 0.04 0.08 0.04 0.02 0.03 0.04 0.04 0.04 0.03 0.05 0.09 0.08 0.03 0.01 0.01 0.00 0.00 0.00 0.01 0.01 0.01 0.01 0.01 0.01 0.01 0.00 0.00 0.00 0.00 0.00 0.00 0.00 0.00 0.00 0.00 0.00 0.00 0.01 0.01 0.01 0.02 0.02 0.01
0.02 0.01 0.00 0.00 0.01 0.06 0.05 0.10 0.06 0.02 0.03 0.03 0.02 0.01 0.03 0.04 0.04 0.04 0.01 0.00 0.00 0.00 0.00 0.00 0.01 0.02 0.02 0.01 0.01 0.01 0.00 0.00 0.00 0.00 0.00 0.00 0.00 0.00 0.00 0.00 0.00 0.00 0.00 0.00 0.00 0.01 0.01 0.01 0.01
0.00 0.00 0.00 0.01 0.02 0.07 0.04 0.03 0.03 0.01 0.01 0.00 0.00 0.00 0.01 0.01 0.01 0.01 0.00 0.00 0.00 0.00 0.00 0.00 0.03 0.02 0.02 0.01 0.01 0.01 0.00 0.00 0.00 0.00 0.00 0.00 0.00 0.00 0.00 0.00 0.00 0.00 0.00 0.00 0.00 0.01 0.01 0.01 0.01
0.00 0.00 0.03 0.05 0.08 0.15 0.05 0.01 0.02 0.02 0.01 0.00 0.00 0.00 0.00 0.00 0.00 0.00 0.00 0.00 0.00 0.00 0.00 0.00 0.02 0.02 0.01 0.00 0.00 0.00 0.00 0.00 0.00 0.00 0.00 0.00 0.00 0.00 0.00 0.00 0.00 0.00 0.00 0.00 0.00 0.00 0.00 0.00 0.01
0.00 0.00 0.09 0.18 0.21 0.10 0.01 0.00 0.00 0.00 0.00 0.00 0.00 0.00 0.00 0.00 0.00 0.00 0.00 0.00 0.00 0.00 0.00 0.00 0.01 0.01 0.00 0.00 0.00 0.00 0.00 0.00 0.00 0.00 0.00 0.00 0.00 0.00 0.00 0.00 0.00 0.00 0.00 0.00 0.00 0.00 0.00 0.00 0.01
0.00 0.00 0.01 0.03 0.04 0.01 0.00 0.00 0.00 0.00 0.00 0.00 0.00 0.00 0.00 0.00 0.00 0.00 0.00 0.00 0.00 0.00 0.00 0.00 0.00 0.01 0.00 0.00 0.00 0.00 0.00 0.00 0.00 0.00 0.00 0.00 0.00 0.00 0.00 0.00 0.00 0.00 0.00 0.00 0.00 0.00 0.00 0.00 0.00
0.00 0.00 0.00 0.00 0.00 0.01 0.01 0.00 0.00 0.00 0.00 0.00 0.00 0.00 0.00 0.00 0.00 0.00 0.00 0.00 0.00 0.00 0.00 0.00 0.00 0.00 0.00 0.00 0.00 0.00 0.00 0.00 0.00 0.00 0.00 0.00 0.00 0.00 0.00 0.00 0.00 0.00 0.01 0.01 0.01 0.01 0.01 0.01 0.01
0.00 0.00 0.00 0.00 0.00 0.01 0.03 0.03 0.01 0.00 0.00 0.00 0.00 0.00 0.00 0.00 0.00 0.00 0.00 0.00 0.00 0.00 0.00 0.00 0.00 0.00 0.00 0.00 0.00 0.00 0.00 0.00 0.00 0.00 0.00 0.00 0.00 0.00 0.00 0.00 0.01 0.01 0.01 0.01 0.01 0.01 0.01 0.01 0.01
0.00 0.00 0.00 0.00 0.00 0.00 0.06 0.06 0.01 0.00 0.00 0.00 0.00 0.00 0.00 0.00 0.00 0.00 0.00 0.00 0.00 0.00 0.00 0.00 0.00 0.00 0.00 0.00 0.00 0.00 0.00 0.00 0.00 0.00 0.00 0.00 0.00 0.01 0.01 0.01 0.01 0.01 0.01 0.01 0.02 0.01 0.01 0.01 0.01
0.00 0.00 0.00 0.00 0.00 0.00 0.01 0.02 0.00 0.00 0.00 0.00 0.00 0.00 0.00 0.00 0.00 0.00 0.00 0.00 0.00 0.00 0.00 0.00 0.00 0.00 0.00 0.00 0.00 0.00 0.00 0.00 0.00 0.00 0.00 0.00 0.00 0.01 0.01 0.01 0.01 0.01 0.01 0.01 0.01 0.01 0.01 0.01 0.01
MSLP
1009.84 1010.64 1011.48 1012.15 1012.49 1012.39 1011.82 1010.89 1009.73 1008.57 1007.63 1007.05 1006.90 1007.18 1007.78 1008.54 1009.31 1009.95 1010.40 1010.66 1010.80 1010.90 1011.06 1011.33 1011.74 1012.23 1012.74 1013.21 1013.56 1013.78 1013.89 1013.94 1013.99 1014.12 1014.35 1014.69 1015.08 1015.49 1015.85 1016.11 1016.27 1016.33 1016.33 1016.31 1016.30 1016.33 1016.40 1016.49 1016.57
1010.07 1010.88 1011.63 1012.13 1012.24 1011.90 1011.13 1010.03 1008.79 1007.63 1006.75 1006.28 1006.25 1006.64 1007.32 1008.14 1008.94 1009.62 1010.11 1010.43 1010.66 1010.87 1011.14 1011.51 1011.99 1012.53 1013.06 1013.51 1013.84 1014.04 1014.14 1014.19 1014.27 1014.41 1014.64 1014.95 1015.30 1015.65 1015.93 1016.13 1016.24 1016.28 1016.30 1016.32 1016.37 1016.46 1016.58 1016.69 1016.77
1010.36 1011.11 1011.69 1011.97 1011.82 1011.23 1010.27 1009.06 1007.81 1006.72 1005.96 1005.63 1005.75 1006.24 1006.98 1007.81 1008.60 1009.26 1009.76 1010.12 1010.42 1010.73 1011.12 1011.61 1012.18 1012.77 1013.33 1013.79 1014.11 1014.31 1014.41 1014.48 1014.58 1014.73 1014.96 1015.24 1015.54 1015.80 1015.99 1016.11 1016.16 1016.18 1016.21 1016.29 1016.41 1016.58 1016.76 1016.91 1016.99
1010.64 1011.25 1011.62 1011.62 1011.21 1010.40 1009.29 1008.04 1006.85 1005.91 1005.34 1005.20 1005.46 1006.04 1006.80 1007.60 1008.33 1008.92 1009.38 1009.75 1010.11 1010.52 1011.02 1011.62 1012.29 1012.95 1013.53 1014.00 1014.32 1014.52 1014.64 1014.74 1014.86 1015.04 1015.27 1015.53 1015.76 1015.93 1016.03 1016.06 1016.06 1016.06 1016.12 1016.25 1016.45 1016.70 1016.94 1017.12 1017.20
1010.81 1011.24 1011.36 1011.09 1010.43 1009.45 1008.27 1007.07 1006.03 1005.30 1004.96 1005.04 1005.45 1006.09 1006.84 1007.56 1008.17 1008.65 1009.04 1009.39 1009.79 1010.28 1010.89 1011.60 1012.34 1013.05 1013.66 1014.13 1014.44 1014.64 1014.78 1014.90 1015.07 1015.28 1015.52 1015.75 1015.93 1016.04 1016.05 1016.01 1015.95 1015.94 1016.02 1016.21 1016.48 1016.80 1017.10 1017.30 1017.38
1010.83 1011.04 1010.90 1010.39 1009.55 1008.47 1007.31 1006.25 1005.42 1004.97 1004.90 1005.19 1005.74 1006.42 1007.10 1007.70 1008.16 1008.50 1008.79 1009.11 1009.52 1010.07 1010.77 1011.57 1012.38 1013.12 1013.73 1014.18 1014.47 1014.65 1014.79 1014.94 1015.13 1015.38 1015.64 1015.87 1016.03 1016.08 1016.04 1015.94 1015.84 1015.82 1015.92 1016.14 1016.48 1016.85 1017.19 1017.41 1017.48
1010.68 1010.67 1010.31 1009.62 1008.66 1007.58 1006.53 1005.67 1005.12 1004.96 1005.17 1005.66 1006.31 1006.99 1007.59 1008.03 1008.32 1008.51 1008.68 1008.95 1009.37 1009.97 1010.73 1011.59 1012.43 1013.18 1013.76 1014.16 1014.40 1014.55 1014.67 1014.83 1015.06 1015.34 1015.63 1015.88 1016.03 1016.05 1015.97 1015.83 1015.71 1015.67 1015.78 1016.03 1016.40 1016.81 1017.17 1017.40 1017.46
1010.39 1010.20 1009.69 1008.89 1007.91 1006.91 1006.03 1005.41 1005.15 1005.28 1005.73 1006.38 1007.10 1007.74 1008.22 1008.51 1008.62 1008.66 1008.73 1008.95 1009.37 1010.00 1010.81 1011.69 1012.54 1013.25 1013.78 1014.11 1014.28 1014.37 1014.47 1014.63 1014.87 1015.19 1015.51 1015.78 1015.94 1015.95 1015.85 1015.68 1015.54 1015.49 1015.59 1015.85 1016.23 1016.66 1017.03 1017.27 1017.32
1010.05 1009.76 1009.17 1008.35 1007.43 1006.56 1005.88 1005.52 1005.53 1005.90 1006.53 1007.28 1008.01 1008.58 1008.94 1009.07 1009.03 1008.94 1008.93 1009.11 1009.53 1010.18 1011.01 1011.90 1012.72 1013.38 1013.83 1014.07 1014.16 1014.19 1014.24 1014.39 1014.64 1014.98 1015.33 1015.62 1015.79 1015.81 1015.70 1015.51 1015.34 1015.28 1015.37 1015.62 1016.00 1016.42 1016.79 1017.02 1017.07
1009.78 1009.45 1008.86 1008.10 1007.30 1006.60 1006.14 1006.00 1006.21 1006.74 1007.47 1008.24 1008.93 1009.41 1009.64 1009.63 1009.47 1009.30 1009.24 1009.41 1009.83 1010.50 1011.33 1012.20 1012.97 1013.56 1013.93 1014.08 1014.10 1014.06 1014.07 1014.20 1014.46 1014.80 1015.17 1015.48 1015.65 1015.67 1015.55 1015.35 1015.16 1015.07 1015.13 1015.36 1015.72 1016.12 1016.49 1016.72 1016.77
1009.65 1009.36 1008.85 1008.22 1007.57 1007.05 1006.76 1006.78 1007.12 1007.71 1008.44 1009.17 1009.76 1010.12 1010.24 1010.13 1009.90 1009.69 1009.63 1009.80 1010.24 1010.91 1011.73 1012.56 1013.28 1013.80 1014.09 1014.18 1014.13 1014.05 1014.03 1014.14 1014.39 1014.73 1015.10 1015.41 1015.58 1015.59 1015.46 1015.24 1015.03 1014.91 1014.94 1015.13 1015.45 1015.83 1016.18 1016.41 1016.47
1009.72 1009.52 1009.15 1008.67 1008.19 1007.83 1007.67 1007.78 1008.14 1008.70 1009.34 1009.95 1010.42 1010.67 1010.69 1010.52 1010.27 1010.08 1010.04 1010.24 1010.70 1011.37 1012.16 1012.95 1013.61 1014.08 1014.31 1014.35 1014.27 1014.18 1014.15 1014.25 1014.49 1014.82 1015.17 1015.46 1015.61 1015.61 1015.46 1015.22 1014.99 1014.84 1014.83 1014.98 1015.26 1015.60 1015.92 1016.14 1016.21
1009.96 1009.90 1009.69 1009.38 1009.07 1008.83 1008.75 1008.86 1009.16 1009.61 1010.11 1010.56 1010.88 1011.02 1010.98 1010.80 1010.59 1010.44 1010.46 1010.70 1011.18 1011.83 1012.59 1013.32 1013.93 1014.35 1014.56 1014.59 1014.52 1014.44 1014.43 1014.53 1014.76 1015.07 1015.39 1015.64 1015.76 1015.73 1015.57 1015.31 1015.06 1014.88 1014.83 1014.94 1015.17 1015.47 1015.76 1015.96 1016.03
1010.31 1010.40 1010.36 1010.23 1010.05 1009.91 1009.85 1009.91 1010.09 1010.37 1010.68 1010.96 1011.15 1011.21 1011.15 1011.01 1010.86 1010.80 1010.89 1011.17 1011.65 1012.27 1012.96 1013.63 1014.19 1014.58 1014.79 1014.85 1014.83 1014.80 1014.82 1014.95 1015.17 1015.45 1015.72 1015.92 1016.01 1015.94 1015.76 1015.50 1015.23 1015.04 1014.96 1015.02 1015.20 1015.45 1015.70 1015.88 1015.94
1010.67 1010.91 1011.03 1011.05 1011.00 1010.92 1010.85 1010.83 1010.86 1010.96 1011.08 1011.20 1011.28 1011.29 1011.25 1011.19 1011.14 1011.17 1011.33 1011.64 1012.10 1012.66 1013.28 1013.87 1014.37 1014.74 1014.97 1015.09 1015.14 1015.18 1015.26 1015.41 1015.62 1015.86 1016.08 1016.23 1016.27 1016.18 1015.99 1015.73 1015.47 1015.28 1015.19 1015.21 1015.35 1015.54 1015.74 1015.88 1015.92
1010.95 1011.31 1011.57 1011.73 1011.79 1011.76 1011.67 1011.56 1011.46 1011.38 1011.34 1011.32 1011.33 1011.34 1011.36 1011.39 1011.46 1011.59 1011.81 1012.13 1012.53 1013.01 1013.53 1014.02 1014.46 1014.82 1015.08 1015.27 1015.40 1015.52 1015.66 1015.83 1016.03 1016.23 1016.39 1016.48 1016.48 1016.38 1016.19 1015.96 1015.73 1015.56 1015.47 1015.47 1015.56 1015.70 1015.85 1015.94 1015.95
1011.08 1011.54 1011.93 1012.22 1012.38 1012.40 1012.29 1012.11 1011.88 1011.67 1011.50 1011.39 1011.36 1011.41 1011.51 1011.65 1011.83 1012.05 1012.31 1012.61 1012.94 1013.31 1013.71 1014.10 1014.47 1014.80 1015.10 1015.35 1015.57 1015.77 1015.96 1016.15 1016.33 1016.48 1016.58 1016.62 1016.58 1016.48 1016.32 1016.13 1015.96 1015.83 1015.76 1015.76 1015.82 1015.92 1016.00 1016.05 1016.02
1011.02 1011.58 1012.09 1012.51 1012.76 1012.84 1012.74 1012.50 1012.19 1011.86 1011.60 1011.44 1011.40 1011.49 1011.68 1011.94 1012.23 1012.52 1012.80 1013.06 1013.31 1013.56 1013.82 1014.10 1014.40 1014.71 1015.03 1015.34 1015.64 1015.90 1016.14 1016.33 1016.47 1016.57 1016.62 1016.61 1016.56 1016.47 1016.35 1016.24 1016.14 1016.07 1016.04 1016.06 1016.10 1016.15 1016.18 1016.18 1016.11
1010.82 1011.47 1012.10 1012.64 1013.00 1013.14 1013.05 1012.78 1012.40 1012.00 1011.67 1011.47 1011.43 1011.57 1011.84 1012.19 1012.57 1012.91 1013.20 1013.42 1013.58 1013.71 1013.86 1014.04 1014.27 1014.56 1014.90 1015.26 1015.61 1015.93 1016.19 1016.37 1016.48 1016.53 1016.52 1016.48 1016.42 1016.35 1016.30 1016.27 1016.26 1016.27 1016.29 1016.33 1016.36 1016.39 1016.38 1016.33 1016.23
1010.53 1011.27 1012.03 1012.69 1013.16 1013.37 1013.30 1013.01 1012.57 1012.10 1011.70 1011.45 1011.41 1011.57 1011.90 1012.32 1012.76 1013.14 1013.43 1013.61 1013.71 1013.76 1013.81 1013.91 1014.10 1014.38 1014.73 1015.13 1015.53 1015.88 1016.15 1016.32 1016.40 1016.40 1016.35 1016.28 1016.22 1016.19 1016.20 1016.25 1016.33 1016.42 1016.51 1016.58 1016.61 1016.62 1016.58 1016.50 1016.38
1010.22 1011.08 1011.97 1012.76 1013.32 1013.58 1013.53 1013.21 1012.71 1012.15 1011.67 1011.36 1011.28 1011.43 1011.77 1012.23 1012.71 1013.12 1013.42 1013.58 1013.64 1013.64 1013.65 1013.71 1013.88 1014.17 1014.55 1014.99 1015.42 1015.79 1016.07 1016.23 1016.28 1016.24 1016.15 1016.07 1016.02 1016.03 1016.10 1016.23 1016.39 1016.55 1016.69 1016.79 1016.83 1016.82 1016.77 1016.67 1016.55
1009.99 1010.97 1011.98 1012.87 1013.50 1013.81 1013.75 1013.38 1012.80 1012.14 1011.55 1011.14 1010.98 1011.09 1011.41 1011.86 1012.35 1012.79 1013.11 1013.29 1013.36 1013.36 1013.37 1013.44 1013.64 1013.95 1014.37 1014.84 1015.31 1015.71 1015.99 1016.15 1016.17 1016.11 1016.01 1015.91 1015.87 1015.91 1016.03 1016.22 1016.43 1016.64 1016.82 1016.94 1016.98 1016.97 1016.91 1016.81 1016.69
1009.86 1010.95 1012.06 1013.03 1013.72 1014.03 1013.94 1013.50 1012.82 1012.04 1011.32 1010.79 1010.52 1010.54 1010.80 1011.22 1011.71 1012.17 1012.52 1012.75 1012.87 1012.92 1012.98 1013.11 1013.36 1013.72 1014.19 1014.71 1015.21 1015.63 1015.93 1016.09 1016.11 1016.04 1015.93 1015.83 1015.80 1015.86 1016.00 1016.21 1016.46 1016.69 1016.88 1017.00 1017.05 1017.03 1016.96 1016.87 1016.78
1009.84 1011.01 1012.19 1013.20 1013.90 1014.19 1014.05 1013.53 1012.74 1011.83 1010.98 1010.31 1009.92 1009.83 1010.01 1010.39 1010.86 1011.34 1011.74 1012.03 1012.23 1012.37 1012.52 1012.74 1013.06 1013.49 1014.01 1014.57 1015.10 1015.55 1015.86 1016.03 1016.06 1015.99 1015.89 1015.80 1015.78 1015.84 1015.99 1016.20 1016.44 1016.66 1016.83 1016.94 1016.98 1016.96 1016.89 1016.82 1016.74
1009.90 1011.11 1012.31 1013.31 1013.98 1014.23 1014.03 1013.42 1012.53 1011.52 1010.54 1009.75 1009.24 1009.05 1009.14 1009.47 1009.93 1010.42 1010.87 1011.24 1011.53 1011.79 1012.04 1012.35 1012.75 1013.25 1013.82 1014.41 1014.96 1015.43 1015.76 1015.94 1015.99 1015.94 1015.85 1015.78 1015.75 1015.81 1015.94 1016.12 1016.33 1016.52 1016.67 1016.75 1016.77 1016.74 1016.68 1016.62 1016.57
1010.00 1011.18 1012.33 1013.28 1013.89 1014.07 1013.81 1013.14 1012.19 1011.10 1010.05 1009.18 1008.58 1008.30 1008.33 1008.61 1009.05 1009.55 1010.05 1010.50 1010.89 1011.24 1011.60 1012.00 1012.47 1013.01 1013.61 1014.21 1014.77 1015.24 1015.57 1015.77 1015.83 1015.81 1015.74 1015.68 1015.66 1015.71 1015.81 1015.96 1016.12 1016.27 1016.37 1016.42 1016.41 1016.37 1016.32 1016.28 1016.26
1010.06 1011.16 1012.21 1013.05 1013.57 1013.68 1013.36 1012.67 1011.70 1010.60 1009.54 1008.65 1008.02 1007.70 1007.69 1007.93 1008.35 1008.87 1009.40 1009.91 1010.38 1010.82 1011.26 1011.72 1012.23 1012.80 1013.39 1013.97 1014.51 1014.95 1015.28 1015.48 1015.56 1015.56 1015.52 1015.48 1015.47 1015.50 1015.58 1015.69 1015.80 1015.90 1015.96 1015.97 1015.95 1015.91 1015.86 1015.83 1015.83
1010.05 1011.00 1011.89 1012.60 1013.01 1013.05 1012.70 1012.02 1011.09 1010.06 1009.05 1008.20 1007.60 1007.29 1007.27 1007.50 1007.91 1008.43 1008.99 1009.54 1010.07 1010.56 1011.05 1011.54 1012.06 1012.60 1013.16 1013.69 1014.18 1014.58 1014.88 1015.07 1015.16 1015.18 1015.16 1015.14 1015.14 1015.17 1015.23 1015.32 1015.40 1015.46 1015.48 1015.48 1015.45 1015.40 1015.36 1015.34 1015.35
1009.94 1010.70 1011.41 1011.95 1012.23 1012.20 1011.85 1011.22 1010.39 1009.47 1008.59 1007.84 1007.32 1007.07 1007.08 1007.31 1007.73 1008.25 1008.81 1009.38 1009.93 1010.45 1010.95 1011.45 1011.94 1012.44 1012.93 1013.39 1013.80 1014.14 1014.39 1014.56 1014.65 1014.68 1014.69 1014.69 1014.71 1014.75 1014.81 1014.88 1014.94 1014.99 1015.00 1014.99 1014.96 1014.92 1014.89 1014.88 1014.89
1009.76 1010.31 1010.80 1011.16 1011.32 1011.23 1010.89 1010.33 1009.62 1008.86 1008.14 1007.55 1007.15 1006.98 1007.03 1007.29 1007.70 1008.22 1008.78 1009.35 1009.90 1010.42 1010.92 1011.39 1011.85 1012.29 1012.70 1013.09 1013.41 1013.68 1013.88 1014.01 1014.09 1014.13 1014.16 1014.18 1014.23 1014.28 1014.36 1014.43 1014.49 1014.54 1014.56 1014.56 1014.54 1014.52 1014.49 1014.48 1014.48
Thickness
5834 5835 5834 5826 5811 5798 5779 5797 5840 5851 5852 5865 5868 5857 5838 5827 5813 5800 5834 5842 5833 5822 5813 5807 5804 5801 5799 5797 5795 5793 5791 5788 5785 5783 5780 5778 5775 5773 5771 5769 5768 5766 5764 5763 5761 5760 5758 5757 5756
5839 5839 5832 5824 5808 5783 5771 5801 5830 5851 5862 5870 5867 5857 5840 5828 5835 5832 5836 5837 5831 5821 5813 5806 5801 5798 5795 5793 5792 5790 5787 5785 5783 5780 5778 5775 5773 5771 5769 5767 5766 5764 5762 5761 5759 5758 5757 5755 5754
5839 5841 5828 5825 5819 5804 5795 5828 5845 5859 5871 5867 5856 5852 5837 5825 5833 5834 5837 5839 5832 5821 5810 5802 5798 5795 5792 5790 5788 5786 5784 5782 5779 5777 5775 5773 5771 5769 5767 5765 5764 5762 5760 5759 5757 5756 5755 5753 5752
5834 5833 5828 5823 5823 5840 5840 5847 5854 5858 5862 5865 5854 5834 5829 5835 5838 5838 5841 5839 5827 5817 5808 5799 5795 5792 5789 5786 5784 5781 5779 5777 5775 5773 5771 5770 5768 5766 5765 5763 5762 5760 5758 5757 5755 5754 5753 5751 5750
5832 5824 5814 5816 5831 5845 5851 5858 5859 5852 5847 5849 5846 5822 5815 5832 5843 5841 5840 5835 5826 5816 5806 5798 5792 5789 5786 5783 5780 5778 5776 5774 5771 5769 5768 5766 5765 5763 5762 5761 5759 5758 5756 5755 5753 5752 5751 5749 5748
5820 5821 5805 5811 5832 5843 5846 5853 5860 5851 5846 5840 5830 5816 5810 5829 5835 5837 5837 5832 5825 5814 5804 5795 5790 5786 5783 5780 5778 5775 5773 5770 5768 5766 5764 5763 5761 5760 5759 5758 5757 5755 5754 5753 5751 5750 5749 5747 5746
5809 5806 5804 5817 5831 5834 5837 5847 5849 5841 5831 5833 5832 5811 5808 5821 5831 5835 5832 5828 5822 5813 5802 5793 5788 5783 5780 5777 5774 5772 5770 5767 5765 5763 5762 5760 5759 5757 5756 5755 5754 5753 5752 5750 5749 5748 5747 5746 5744
5819 5805 5801 5817 5829 5832 5843 5840 5836 5831 5818 5830 5831 5810 5801 5814 5827 5830 5826 5820 5814 5808 5802 5794 5788 5783 5778 5774 5771 5768 5766 5764 5762 5761 5759 5757 5756 5755 5754 5753 5752 5750 5749 5748 5747 5747 5745 5744 5743
5819 5793 5792 5815 5827 5828 5836 5824 5822 5835 5822 5820 5828 5826 5817 5819 5822 5818 5813 5807 5803 5799 5797 5793 5786 5781 5778 5773 5768 5765 5762 5760 5758 5757 5755 5754 5753 5753 5752 5751 5749 5747 5746 5745 5745 5745 5744 5743 5742
5806 5787 5803 5826 5829 5823 5822 5815 5812 5818 5812 5806 5806 5809 5812 5813 5812 5807 5801 5795 5791 5788 5788 5785 5782 5778 5775 5771 5765 5762 5759 5756 5754 5753 5751 5750 5749 5749 5749 5748 5746 5744 5742 5741 5742 5742 5741 5741 5742
5804 5797 5811 5821 5825 5822 5814 5812 5818 5808 5790 5786 5785 5792 5801 5804 5804 5800 5795 5791 5787 5785 5782 5779 5776 5772 5768 5764 5760 5757 5755 5752 5751 5749 5747 5746 5745 5745 5745 5744 5742 5740 5739 5738 5740 5739 5738 5739 5740
5800 5805 5809 5810 5819 5817 5811 5810 5807 5798 5781 5784 5784 5790 5795 5796 5795 5792 5788 5785 5782 5779 5775 5773 5769 5764 5760 5758 5755 5752 5749 5747 5746 5744 5742 5741 5740 5740 5740 5739 5738 5737 5736 5736 5736 5736 5736 5736 5737
5798 5800 5805 5809 5809 5812 5812 5806 5799 5784 5784 5785 5782 5786 5790 5792 5790 5788 5785 5780 5776 5772 5768 5764 5761 5757 5754 5751 5749 5746 5744 5742 5741 5738 5737 5735 5736 5735 5735 5734 5733 5734 5733 5733 5733 5733 5732 5733 5734
5799 5799 5796 5795 5801 5806 5801 5799 5790 5776 5780 5781 5782 5783 5787 5785 5783 5779 5775 5771 5768 5765 5761 5758 5755 5751 5748 5745 5743 5741 5740 5738 5736 5733 5731 5729 5730 5729 5730 5730 5730 5730 5730 5730 5729 5730 5730 5729 5730
5802 5784 5774 5780 5786 5794 5795 5773 5762 5770 5775 5778 5778 5778 5777 5777 5776 5771 5769 5766 5763 5759 5757 5753 5750 5746 5743 5741 5739 5737 5735 5733 5731 5728 5727 5724 5723 5723 5723 5725 5726 5726 5726 5726 5726 5726 5727 5726 5727
5790 5768 5746 5765 5778 5787 5776 5739 5746 5760 5764 5770 5772 5770 5767 5765 5766 5766 5764 5761 5759 5755 5751 5749 5748 5742 5739 5736 5735 5733 5730 5728 5727 5724 5722 5718 5717 5718 5718 5720 5721 5720 5721 5721 5721 5721 5721 5721 5721
5774 5752 5744 5754 5775 5783 5769 5738 5747 5758 5758 5760 5765 5763 5761 5757 5757 5758 5759 5756 5753 5750 5748 5744 5742 5738 5736 5733 5731 5729 5727 5725 5724 5721 5717 5714 5713 5713 5713 5714 5715 5715 5715 5716 5716 5716 5715 5713 5713
5772 5764 5757 5754 5775 5778 5764 5749 5750 5757 5753 5753 5759 5757 5753 5751 5750 5752 5752 5751 5748 5746 5744 5741 5738 5735 5733 5731 5728 5726 5724 5722 5721 5718 5713 5710 5709 5708 5707 5709 5709 5709 5709 5709 5709 5708 5709 5708 5708
5794 5780 5767 5770 5784 5779 5765 5754 5750 5754 5753 5750 5750 5748 5745 5745 5748 5749 5749 5747 5744 5742 5740 5738 5735 5732 5730 5727 5724 5721 5719 5718 5718 5716 5711 5708 5706 5704 5703 5703 5702 5703 5703 5702 5702 5702 5701 5702 5705
5791 5777 5774 5778 5788 5779 5765 5759 5760 5759 5755 5752 5746 5742 5740 5740 5741 5741 5744 5744 5743 5741 5739 5737 5734 5732 5729 5726 5723 5720 5718 5718 5717 5714 5711 5707 5704 5701 5701 5698 5698 5698 5697 5697 5697 5697 5694 5695 5699
5786 5777 5779 5779 5782 5772 5757 5746 5754 5759 5760 5757 5752 5748 5745 5743 5741 5740 5742 5744 5744 5741 5740 5739 5736 5733 5729 5727 5724 5722 5718 5715 5714 5711 5709 5706 5703 5700 5698 5696 5694 5693 5692 5692 5692 5691 5690 5688 5691
5782 5794 5794 5786 5769 5750 5748 5728 5747 5757 5755 5755 5755 5752 5749 5749 5747 5745 5745 5745 5745 5745 5745 5742 5738 5734 5730 5726 5722 5718 5713 5710 5710 5709 5708 5705 5702 5700 5697 5694 5692 5690 5689 5688 5688 5687 5684 5684 5683
5798 5805 5790 5772 5753 5740 5742 5741 5745 5760 5753 5757 5760 5760 5757 5756 5754 5750 5750 5750 5751 5751 5749 5745 5739 5734 5730 5726 5722 5717 5713 5711 5710 5707 5706 5704 5702 5700 5697 5694 5690 5688 5686 5685 5683 5682 5681 5679 5678
5809 5797 5775 5754 5731 5709 5737 5748 5743 5758 5762 5765 5767 5766 5764 5763 5761 5757 5757 5756 5754 5754 5751 5747 5739 5734 5730 5726 5722 5717 5712 5709 5705 5703 5701 5701 5701 5701 5698 5694 5689 5685 5683 5681 5679 5677 5676 5675 5674
5798 5777 5740 5713 5702 5715 5761 5763 5757 5776 5783 5779 5774 5771 5770 5768 5764 5760 5758 5756 5755 5753 5751 5747 5740 5733 5730 5725 5721 5717 5713 5709 5705 5702 5701 5699 5698 5698 5695 5692 5687 5683 5680 5678 5676 5674 5672 5670 5668
5794 5786 5755 5734 5734 5749 5771 5763 5772 5791 5793 5791 5786 5780 5775 5771 5769 5766 5763 5761 5758 5755 5752 5747 5740 5734 5730 5725 5721 5717 5713 5709 5707 5704 5701 5698 5695 5694 5692 5689 5685 5681 5678 5675 5673 5670 5668 5667 5665
5790 5788 5793 5776 5770 5753 5756 5771 5775 5790 5787 5787 5785 5781 5776 5775 5774 5771 5768 5765 5761 5757 5752 5748 5740 5734 5730 5726 5721 5716 5712 5708 5704 5701 5698 5696 5694 5692 5690 5687 5683 5679 5675 5671 5668 5665 5663 5661 5659
5803 5797 5788 5772 5751 5739 5735 5743 5755 5772 5776 5782 5782 5780 5779 5779 5777 5775 5772 5768 5764 5759 5753 5748 5741 5734 5730 5725 5721 5718 5713 5709 5704 5700 5697 5694 5691 5688 5685 5682 5679 5675 5672 5668 5664 5660 5658 5655 5652
5787 5788 5783 5779 5772 5747 5721 5732 5776 5781 5785 5784 5785 5786 5784 5782 5780 5777 5774 5771 5765 5760 5753 5746 5740 5734 5729 5724 5721 5716 5713 5709 5705 5701 5697 5694 5690 5686 5682 5679 5675 5672 5668 5664 5660 5656 5652 5649 5645
5786 5789 5783 5763 5758 5765 5750 5748 5791 5794 5797 5795 5793 5791 5790 5787 5784 5780 5775 5769 5763 5758 5752 5745 5740 5734 5729 5725 5721 5716 5712 5707 5703 5699 5697 5693 5689 5685 5681 5677 5672 5668 5665 5661 5656 5651 5647 5643 5639